Guymon, OK

8:59 AM CDT on August 27, 2016 (GMT -0500)
Guymon Municipal

Weather History for KGUY - May, 2014

Change the Weather History Date:

Monday, May 26, 2014

  Actual Average Record
Temperature  
Mean Temperature 67 °F 68 °F  
Max Temperature 75 °F 82 °F 102 °F (2006)
Min Temperature 59 °F 54 °F 43 °F (2011)
Degree Days  
Heating Degree Days 0 1  
Month to date heating degree days 77 90  
Since 1 July heating degree days 4532 4443  
Cooling Degree Days 2 4  
Month to date cooling degree days 106 68  
Year to date cooling degree days 134 83  
Growing Degree Days 16 (Base 50)    
Moisture  
Dew Point 54 °F    
Average Humidity 67    
Maximum Humidity 93    
Minimum Humidity 41    
Precipitation  
Precipitation T in 0.10 in 0.47 in (1999)
Month to date precipitation 1.79 1.88  
Year to date precipitation 2.89 5.69  
Snow  
Snow 0.00 in - - ()
Month to date snowfall 0.0  
Since 1 July snowfall 16.2  
Snow Depth 0.00 in    
Sea Level Pressure  
Sea Level Pressure 29.87 in    
Wind  
Wind Speed 10 mph (South)    
Max Wind Speed 21 mph    
Max Gust Speed 25 mph    
Visibility 10 miles    
Events Rain    
T = Trace of Precipitation, MM = Missing Value Source: NWS Daily Summary

Daily Weather History Graph

Daily Weather History Graph

Search for Another Location

Airport or City:

Trip Planner

Search our weather history database for the weather conditions in past years. The results will help you decide how hot, cold, wet, or windy it might be!

Date:

Astronomy

May. 26, 2014 Rise Set
Actual Time 6:31 AM CDT 8:55 PM CDT
Civil Twilight 6:01 AM CDT 9:24 PM CDT
Nautical Twilight 5:25 AM CDT 10:01 PM CDT
Astronomical Twilight 4:44 AM CDT 10:41 PM CDT
Moon 5:10 AM CDT (5/26) 7:02 PM CDT (5/26)
Length of Visible Light 15h 23m
Length of Day
14h 23m
Waning Crescent, 5% of the Moon is Illuminated
May 26
Waning Crescent
May 28
New
Jun 5
First Quarter
Jun 12
Full
Jun 19
Last Quarter

Hourly Weather History & Observations

Time (CDT) Temp. Dew Point Humidity Pressure Visibility Wind Dir Wind Speed Gust Speed Precip Events Conditions
12:53 AM 60.1 °F 55.9 °F 86% 29.89 in 10.0 mi South 9.2 mph - N/A   Clear
1:53 AM 59.0 °F 57.0 °F 93% 29.88 in 10.0 mi South 8.1 mph - N/A   Clear
2:53 AM 60.1 °F 57.9 °F 93% 29.86 in 10.0 mi South 9.2 mph - N/A   Clear
3:53 AM 61.0 °F 59.0 °F 93% 29.86 in 10.0 mi South 9.2 mph - 0.00 in Rain Light Rain
4:53 AM 62.1 °F 55.9 °F 80% 29.86 in 10.0 mi South 15.0 mph - 0.00 in Rain Light Rain
5:53 AM 61.0 °F 54.0 °F 78% 29.87 in 10.0 mi WNW 9.2 mph - 0.00 in   Overcast
6:53 AM 61.0 °F 51.1 °F 70% 29.89 in 10.0 mi ESE 8.1 mph - N/A   Mostly Cloudy
7:53 AM 62.1 °F 52.0 °F 70% 29.87 in 10.0 mi SSW 10.4 mph - N/A   Mostly Cloudy
8:53 AM 62.1 °F 54.0 °F 75% 29.88 in 10.0 mi SSW 13.8 mph - N/A   Overcast
9:53 AM 66.0 °F 52.0 °F 60% 29.89 in 10.0 mi SSW 17.3 mph - N/A   Mostly Cloudy
10:53 AM 64.9 °F 51.1 °F 61% 29.91 in 10.0 mi South 12.7 mph - N/A   Overcast
12:53 PM 66.9 °F 54.0 °F 63% 29.90 in 10.0 mi South 16.1 mph - N/A   Clear
1:53 PM 66.9 °F 53.1 °F 61% 29.90 in 10.0 mi South 13.8 mph - N/A   Scattered Clouds
2:53 PM 69.1 °F 54.0 °F 58% 29.88 in 10.0 mi South 9.2 mph - N/A   Scattered Clouds
3:53 PM 71.1 °F 53.1 °F 53% 29.86 in 10.0 mi South 9.2 mph - N/A   Clear
4:53 PM 73.9 °F 48.9 °F 41% 29.82 in 10.0 mi ESE 6.9 mph - N/A   Clear
5:53 PM 73.9 °F 48.0 °F 40% 29.81 in 10.0 mi SSW 8.1 mph - N/A   Clear
6:53 PM 73.0 °F 50.0 °F 44% 29.82 in 10.0 mi SSE 8.1 mph - N/A   Clear
7:53 PM 70.0 °F 55.0 °F 59% 29.84 in 10.0 mi SSE 5.8 mph - N/A   Clear
8:53 PM 68.0 °F 54.0 °F 61% 29.86 in 10.0 mi SSE 4.6 mph - N/A   Mostly Cloudy
10:53 PM 64.0 °F 57.0 °F 78% 29.89 in 10.0 mi SW 6.9 mph - 0.00 in Rain Light Rain
11:53 PM 63.0 °F 55.9 °F 78% 29.89 in 10.0 mi WSW 6.9 mph - 0.00 in   Overcast